星链-4420 (STARLINK-4420 )

导读 | 星芒AI

STARLINK-4420 是 SpaceX Starlink 卫星互联网项目中的第 4420 颗卫星,属于低轨卫星群,旨在为全球用户提供高速互联网服务。该卫星采用可重复使用设计,配备先进通信设备与星间激光链路,提升网络效率与覆盖范围。其发射进一步完善 Starlink 网络布局,支持偏远地区上网,并具备潜在的军事与应急通信应用价值。

基本信息
目录编号:
53654
目录名称:
STARLINK-4420
国际标识:
2022-105G
轨道中心:
EARTH
卫星名称:
星链-4420
卫星全名:
星链-4420 (STARLINK-4420 )
卫星状态:
在轨 (已飞行1166 天)
发射日期:
2022-08-31 UTC
国别 :
美国 (US)
星等 :
--
轨道信息
数据来源 国际轨道数据
星历时间: 2025-11-08T23:38:15+0800
1天前
查看轨道信息
半长轴: 6927.672km
偏心率: 0.000144
轨道倾角: 97.602°
近地点辐角 77.640°
升交点赤经 191.883°
平近点角 282.499°
近地点: 548.539km
远地点: 550.535km
周期: 95.640分钟
每日圈数: 15.056423
详细信息
固有亮度:
5
最大亮度:
2.5
卫星平台:
Starlink v1.5
覆盖范围:
全球
运营商:
太空探索技术公司
运营商所在国:
美国
制造商(研发单位):
太空探索技术公司
制造商所在国:
美国
使用方式:
暂无
卫星简介
星链(Starlink)计划是由太空探索技术公司(SpaceX)提出的一个巨型低轨卫星互联网星座项目,计划在2019年至2024年间在太空搭建由约1.2万颗卫星组成的“星链”网络,其中1584颗将部署在地球上空550千米处的近地轨道,并从2020年开始工作。该卫星仍在工作。
2D轨道图
3D轨道图
轨道高度分析图
轨道倾角分析图
轨道综合分析图
查看轨道综合分析图